TimeEST,TemperatureF,Dew PointF,Humidity,Sea Level PressureIn,VisibilityMPH,Wind Direction,Wind SpeedMPH,Gust SpeedMPH,PrecipitationIn,Events,Conditions,WindDirDegrees,DateUTC
12:04 AM,60.8,59.0,94,29.99,2.5,NNW,4.6,-,N/A,,Overcast,330,2012-12-08 05:04:00
12:18 AM,60.8,59.0,94,29.99,1.5,NNW,3.5,-,N/A,,Overcast,330,2012-12-08 05:18:00
12:53 AM,60.1,59.0,96,29.99,2.0,Variable,3.5,-,N/A,,Overcast,0,2012-12-08 05:53:00
1:29 AM,59.0,59.0,100,29.98,4.0,NW,5.8,-,N/A,,Overcast,310,2012-12-08 06:29:00
1:44 AM,59.0,59.0,100,29.98,2.0,NW,3.5,-,N/A,,Overcast,320,2012-12-08 06:44:00
1:53 AM,59.0,59.0,100,29.98,1.8,NW,4.6,-,N/A,,Overcast,310,2012-12-08 06:53:00
2:17 AM,59.0,57.2,94,29.98,2.0,WNW,3.5,-,N/A,,Overcast,300,2012-12-08 07:17:00
2:25 AM,59.0,57.2,94,29.98,1.8,Calm,Calm,-,N/A,,Overcast,0,2012-12-08 07:25:00
2:53 AM,57.9,57.9,100,29.99,1.5,Variable,3.5,-,N/A,,Overcast,0,2012-12-08 07:53:00
3:53 AM,57.0,55.9,96,30.00,2.5,NNW,6.9,-,N/A,,Overcast,330,2012-12-08 08:53:00
4:18 AM,57.2,55.4,94,29.99,3.0,Variable,6.9,-,N/A,,Overcast,0,2012-12-08 09:18:00
4:53 AM,55.9,55.0,97,30.00,5.0,Variable,6.9,-,N/A,,Overcast,0,2012-12-08 09:53:00
6:12 AM,55.4,53.6,94,30.02,2.5,Variable,5.8,-,N/A,,Overcast,0,2012-12-08 11:12:00
6:53 AM,55.0,54.0,96,30.04,0.8,Variable,3.5,-,N/A,,Overcast,0,2012-12-08 11:53:00
7:53 AM,54.0,54.0,100,30.06,0.5,NW,3.5,-,N/A,Fog,Fog,310,2012-12-08 12:53:00
8:09 AM,53.6,53.6,100,30.06,0.2,WNW,3.5,-,N/A,Fog,Fog,290,2012-12-08 13:09:00
8:53 AM,55.0,54.0,96,30.06,0.2,Calm,Calm,-,N/A,Fog,Fog,0,2012-12-08 13:53:00
9:40 AM,55.4,55.4,100,30.08,1.0,WSW,4.6,-,N/A,,Overcast,240,2012-12-08 14:40:00
9:53 AM,55.0,54.0,96,30.08,1.5,West,3.5,-,N/A,,Overcast,280,2012-12-08 14:53:00
10:45 AM,57.2,55.4,94,30.07,4.0,WSW,3.5,-,N/A,,Overcast,240,2012-12-08 15:45:00
10:53 AM,57.0,55.0,93,30.07,4.0,WSW,4.6,-,N/A,,Overcast,240,2012-12-08 15:53:00
11:30 AM,59.0,55.4,88,30.06,5.0,WSW,3.5,-,N/A,,Overcast,240,2012-12-08 16:30:00
11:53 AM,61.0,55.9,83,30.05,7.0,WSW,4.6,-,N/A,,Mostly Cloudy,240,2012-12-08 16:53:00
12:02 PM,62.6,55.4,77,30.04,7.0,WSW,3.5,-,N/A,,Scattered Clouds,250,2012-12-08 17:02:00
12:53 PM,60.1,55.0,83,30.04,7.0,South,6.9,-,N/A,,Clear,190,2012-12-08 17:53:00
1:53 PM,60.1,55.9,86,30.03,9.0,SSW,3.5,-,N/A,,Clear,210,2012-12-08 18:53:00
2:53 PM,59.0,55.0,87,30.03,5.0,SSE,5.8,-,N/A,,Partly Cloudy,160,2012-12-08 19:53:00
3:53 PM,57.0,55.0,93,30.04,6.0,Calm,Calm,-,N/A,,Partly Cloudy,0,2012-12-08 20:53:00
4:37 PM,55.4,53.6,94,30.04,2.0,South,4.6,-,N/A,,Scattered Clouds,170,2012-12-08 21:37:00
4:45 PM,55.4,53.6,94,30.04,0.2,South,4.6,-,N/A,Fog,Fog,180,2012-12-08 21:45:00
4:53 PM,55.0,55.0,100,30.05,0.2,South,4.6,-,N/A,Fog,Fog,180,2012-12-08 21:53:00
5:45 PM,55.4,55.4,100,30.06,0.5,Calm,Calm,-,N/A,Fog,Fog,0,2012-12-08 22:45:00
5:53 PM,55.0,55.0,100,30.06,0.2,SSW,3.5,-,N/A,Fog,Fog,200,2012-12-08 22:53:00
6:32 PM,55.4,55.4,100,30.07,0.5,Calm,Calm,-,N/A,Fog,Fog,0,2012-12-08 23:32:00
6:53 PM,55.0,55.0,100,30.07,0.5,Calm,Calm,-,N/A,Fog,Fog,0,2012-12-08 23:53:00
7:20 PM,55.4,53.6,94,30.07,0.2,Calm,Calm,-,N/A,Fog,Fog,0,2012-12-09 00:20:00
7:53 PM,54.0,53.1,97,30.08,0.5,SSW,3.5,-,N/A,Fog,Fog,200,2012-12-09 00:53:00
8:09 PM,53.6,53.6,100,30.08,2.5,SSW,4.6,-,N/A,,Scattered Clouds,200,2012-12-09 01:09:00
8:53 PM,55.9,55.0,97,30.08,3.0,SSW,3.5,-,N/A,,Partly Cloudy,200,2012-12-09 01:53:00
9:53 PM,55.0,55.0,100,30.09,4.0,SSW,3.5,-,N/A,,Partly Cloudy,210,2012-12-09 02:53:00
10:53 PM,55.0,54.0,96,30.10,5.0,SW,5.8,-,N/A,,Clear,230,2012-12-09 03:53:00
11:53 PM,57.0,55.9,96,30.09,6.0,SSW,6.9,-,N/A,,Clear,210,2012-12-09 04:53:00